Temperature
16 16 16 16 17 17 18 21 22 22 22 21 21 21 20 19 18 16 14 14 14 14 14 14 14 14 14 14 14 15 15 14 14 14 14 14 14 14 14 14 14 14 14 14 14 14 14 14 15
16 16 16 17 17 17 19 20 21 21 20 20 20 20 20 17 15 14 14 14 14 14 14 14 14 14 14 14 14 14 14 14 14 14 14 14 14 14 14 14 14 14 14 14 14 14 14 14 14
15 15 16 17 17 18 20 21 20 20 20 20 19 19 18 16 15 14 13 13 13 13 13 14 14 14 14 14 14 14 14 14 14 14 14 14 14 14 14 14 14 14 14 14 14 14 14 14 14
15 15 17 17 17 19 19 20 20 19 19 19 19 18 16 15 14 14 13 13 13 13 13 13 13 13 13 13 14 14 14 14 14 14 14 14 14 14 14 14 14 14 14 14 14 14 14 14 14
15 16 16 16 17 19 20 20 20 19 19 19 18 17 15 14 14 13 13 13 13 13 13 13 13 13 13 13 13 13 13 14 14 14 14 14 14 14 14 14 14 14 14 14 14 14 14 14 14
15 16 16 16 18 19 19 20 19 19 19 18 18 17 14 13 13 13 13 13 13 12 12 13 13 13 13 13 13 13 13 13 14 13 13 13 14 14 14 14 14 14 14 14 14 14 14 14 14
15 15 16 17 18 18 19 19 18 18 18 18 17 16 14 13 12 13 12 12 12 12 12 12 12 12 12 13 13 13 13 13 13 13 13 13 13 13 13 13 13 13 13 13 14 14 14 14 13
14 15 16 16 17 18 18 18 17 17 16 16 16 16 14 12 12 12 12 12 12 12 12 12 12 12 12 12 13 13 13 13 13 13 13 13 13 13 13 13 13 13 13 13 13 13 13 13 13
14 14 14 16 17 17 17 17 16 15 15 15 14 14 13 12 12 12 11 11 11 11 11 11 11 12 12 12 12 12 12 13 13 13 13 13 13 13 13 13 13 13 13 13 13 13 13 13 13
14 13 14 16 16 16 16 15 15 15 14 14 13 13 12 12 12 11 11 10 10 10 11 11 11 11 11 12 12 12 12 12 12 12 12 12 12 12 12 12 12 12 12 12 12 12 12 12 12
14 13 15 15 15 15 14 15 14 14 14 14 13 12 12 11 11 10 10 10 10 10 10 10 11 11 11 11 11 11 11 11 12 12 12 12 12 12 12 12 12 12 12 12 12 12 12 12 12
14 14 14 14 13 13 13 14 13 13 13 13 13 12 11 11 10 10 10 10 10 10 10 10 10 11 11 11 11 11 11 11 11 11 11 11 11 11 11 12 12 12 12 12 12 12 12 12 11
13 13 13 13 13 13 13 12 12 12 12 12 12 12 11 11 10 10 10 10 10 9 9 10 10 10 10 10 10 10 10 10 11 11 11 11 11 11 11 11 11 11 11 11 11 11 11 11 11
13 13 13 13 13 12 12 12 12 12 12 11 11 11 11 10 10 10 10 9 9 9 9 10 10 10 10 10 10 10 10 10 10 10 10 10 10 10 11 11 11 11 11 11 11 11 11 10 10
12 12 12 12 12 12 11 11 11 12 11 11 11 11 11 10 10 10 9 9 9 9 9 9 9 9 9 9 9 9 9 9 9 9 9 10 10 10 10 10 10 10 10 10 10 10 10 10 10
12 11 11 12 12 12 11 10 12 12 12 11 11 11 11 10 10 9 9 9 9 8 8 9 9 9 9 9 9 9 9 9 9 9 9 9 9 9 10 10 10 10 10 10 10 10 9 10 9
11 10 11 12 12 12 11 10 11 12 11 11 11 11 11 10 10 9 9 8 8 8 8 8 8 8 8 8 8 8 8 8 8 8 9 9 9 9 9 9 9 9 9 9 9 9 9 9 9
10 11 12 11 12 11 10 10 11 11 11 11 11 11 10 10 9 9 8 8 8 8 8 8 8 8 8 8 8 8 8 8 8 8 8 8 8 8 9 9 9 9 9 9 8 8 8 8 8
10 10 10 11 11 10 10 10 11 11 11 11 11 10 10 9 9 8 8 8 7 8 8 7 8 8 8 8 7 7 7 7 7 7 7 8 8 8 8 8 8 8 8 8 8 8 8 8 8
10 9 9 10 10 10 9 10 10 10 10 10 10 10 9 9 8 8 7 7 7 7 7 7 7 7 7 7 7 6 6 6 7 7 7 7 7 7 7 7 7 7 7 7 7 7 7 7 7
9 9 9 9 9 9 9 9 10 10 10 10 10 9 9 8 8 7 7 6 6 6 6 6 6 6 6 6 6 6 6 6 6 6 6 6 7 7 7 7 7 7 7 7 7 7 7 7 7
8 8 8 8 7 7 8 7 9 9 9 9 9 9 8 8 7 7 6 6 6 6 6 6 6 6 6 6 6 5 5 5 5 6 6 6 6 6 6 6 6 6 6 6 6 6 6 6 6
7 8 7 7 6 6 7 6 8 9 8 8 8 8 8 7 7 6 6 6 5 5 5 5 5 5 5 5 5 5 5 5 5 5 5 5 5 6 6 5 5 5 5 6 6 6 6 6 6
7 7 7 6 6 5 7 7 7 8 8 8 7 8 7 7 6 6 5 5 5 5 5 5 5 5 5 5 5 4 4 4 5 5 5 5 5 5 5 5 5 5 5 5 5 5 5 5 5
6 5 5 5 5 6 8 7 7 8 8 7 7 7 6 6 5 5 5 4 4 4 4 4 4 4 4 4 4 4 4 4 4 4 4 4 5 5 5 4 4 4 4 4 4 4 5 5 5
6 6 5 5 6 6 7 7 7 7 7 7 7 6 6 5 5 5 4 4 4 4 4 4 4 4 4 4 4 4 4 4 4 4 4 4 4 4 4 4 4 4 4 4 4 4 4 4 4
6 5 6 5 4 5 6 7 7 7 6 6 6 6 5 5 4 4 3 3 3 3 3 3 3 3 3 3 3 3 3 3 3 3 4 4 4 4 4 4 4 4 3 3 3 3 3 4 4
5 5 4 4 4 5 7 7 6 6 6 6 5 5 5 4 4 3 3 3 2 2 3 2 3 2 3 3 3 3 3 3 3 3 3 3 3 3 3 3 3 3 3 3 3 3 3 3 3
4 4 4 4 5 5 5 6 7 6 5 5 4 5 4 3 3 3 2 2 2 2 2 2 2 2 2 2 2 2 2 2 2 2 2 2 3 3 3 3 3 3 3 3 2 3 2 2 2
4 4 4 3 4 4 4 5 6 5 5 5 4 4 3 3 2 2 2 2 1 1 1 1 1 1 1 1 2 2 2 2 2 2 2 2 2 2 2 2 2 2 2 2 2 2 2 2 2
Wind_Speed
12 11 6 2 3 4 7 7 5 1 3 5 7 5 5 6 5 7 3 6 7 7 8 8 8 8 8 8 8 7 6 6 6 7 6 6 6 6 6 6 6 7 7 7 7 8 8 8 8
10 7 4 3 4 6 7 7 3 3 5 5 5 3 3 6 6 7 4 5 6 7 8 8 8 8 8 8 8 8 7 7 6 6 6 6 5 5 6 5 5 6 6 6 7 7 7 7 8
9 7 3 3 4 6 5 1 4 5 6 4 3 4 4 5 5 4 4 4 6 8 9 9 9 8 8 7 8 7 7 7 6 6 5 5 5 5 5 5 5 5 5 5 6 6 6 6 6
4 3 3 4 9 8 6 3 5 3 4 3 2 3 4 5 4 5 5 5 6 7 9 9 8 8 7 7 7 7 7 6 6 6 6 5 5 5 4 4 4 5 4 5 5 5 5 5 5
4 3 5 6 10 8 5 2 3 1 1 2 1 1 4 5 8 8 5 5 6 7 8 8 8 7 7 7 6 6 6 6 5 5 5 5 5 4 4 4 4 4 4 4 4 4 4 4 4
3 3 5 8 9 8 5 0 2 0 1 1 1 0 4 6 7 6 4 5 6 7 7 7 7 7 7 6 6 5 5 5 5 5 4 4 4 4 3 3 3 3 3 3 3 3 3 3 3
3 3 6 8 7 5 2 2 1 1 2 1 1 1 4 5 6 5 4 5 6 7 7 7 7 7 6 6 6 6 4 4 4 4 4 4 4 3 2 2 3 2 2 2 2 2 2 3 3
3 3 6 8 8 5 1 3 4 4 3 4 4 1 3 5 5 4 4 5 6 6 6 6 6 6 5 5 5 5 4 3 3 3 3 3 3 3 3 2 2 2 1 1 1 2 2 3 3
3 3 5 5 5 2 3 2 3 3 2 2 4 3 4 7 5 4 4 4 4 5 5 5 5 5 4 4 4 4 3 2 2 2 2 2 2 2 2 2 2 1 1 0 1 2 2 3 3
3 4 5 3 3 2 2 2 2 1 1 1 1 4 6 5 4 4 3 3 3 3 4 3 4 4 4 3 3 2 2 1 1 1 1 1 1 1 1 1 1 0 0 0 1 2 3 2 2
4 4 3 4 5 4 3 2 1 3 3 3 1 4 4 4 3 2 3 3 3 2 3 3 3 3 3 2 2 2 2 2 2 3 2 1 1 1 1 1 1 0 0 1 1 1 1 2 2
5 4 3 3 4 3 3 2 3 4 4 3 1 3 4 3 2 2 2 2 2 3 2 2 2 2 2 3 2 2 2 2 2 3 3 2 1 1 1 1 1 1 1 1 1 1 1 2 2
7 5 4 2 2 2 3 5 4 5 3 1 1 2 3 3 3 2 2 2 2 2 2 2 1 2 1 1 1 2 2 2 2 2 2 2 1 1 1 1 1 1 1 1 1 1 1 1 2
3 3 3 3 4 3 4 6 4 5 2 2 3 4 4 4 3 3 2 3 2 2 2 2 1 1 1 1 1 1 1 2 1 1 2 2 2 1 1 1 0 1 1 2 2 2 2 2 2
3 4 6 6 5 3 2 7 7 7 5 5 5 5 4 4 3 3 2 2 3 2 2 2 1 1 1 1 1 1 1 1 1 1 1 2 2 2 1 1 1 1 2 2 2 2 2 2 2
5 6 5 5 6 5 4 7 2 3 5 5 5 5 4 4 4 3 2 2 2 2 2 2 1 1 0 1 1 1 1 1 1 1 1 2 2 2 2 1 1 2 2 2 2 2 2 2 2
6 5 6 3 5 5 6 6 3 3 3 4 4 4 3 3 2 2 2 2 1 2 3 2 1 1 0 1 1 1 0 1 1 1 1 2 2 2 2 1 2 2 1 1 2 2 1 2 2
4 5 5 4 2 3 6 8 5 5 5 5 4 2 2 2 2 2 2 2 1 1 2 2 2 1 1 1 1 1 1 1 1 1 1 1 2 3 3 2 2 2 1 2 2 2 1 2 2
6 6 7 4 2 4 8 9 7 5 5 4 3 2 1 1 2 2 2 2 2 1 1 1 2 1 1 0 1 1 1 2 2 2 2 2 3 3 2 2 2 2 2 3 2 2 2 2 1
6 7 7 4 3 5 7 10 8 5 5 3 3 2 1 1 1 2 2 2 2 1 0 1 2 2 1 1 1 2 2 2 2 2 2 3 3 3 3 3 2 3 3 3 3 2 2 2 1
6 6 6 5 6 5 6 7 7 5 5 4 3 2 2 2 1 1 1 1 1 1 1 1 1 1 1 1 1 1 1 2 2 2 2 3 4 4 4 4 4 3 3 3 4 3 3 2 2
5 3 5 5 4 3 3 4 4 3 3 3 2 1 1 1 1 1 1 1 1 1 1 1 1 1 1 1 2 2 2 3 4 3 3 4 4 4 4 4 4 4 3 3 4 4 3 3 3
2 4 5 5 5 5 5 5 5 4 4 3 2 1 1 1 0 0 1 1 1 1 0 1 1 1 1 2 2 3 3 3 3 3 3 4 3 4 4 4 4 4 4 4 4 4 3 3 4
2 3 4 4 2 4 7 6 4 3 3 2 2 2 2 2 1 1 1 1 1 1 0 1 1 2 2 2 3 3 4 4 3 4 3 3 3 3 3 3 3 4 4 4 4 4 4 4 4
1 1 1 1 2 5 4 4 4 1 3 2 2 2 3 3 2 2 2 1 1 1 1 1 2 2 2 2 3 4 4 4 5 4 4 4 3 3 4 3 3 3 4 4 4 4 4 5 4
2 2 1 2 3 2 2 4 1 3 4 3 3 2 3 3 3 2 1 1 1 1 1 2 2 3 3 3 3 4 4 4 4 4 4 4 4 4 4 3 4 4 4 4 4 4 4 4 4
1 2 1 1 3 4 5 3 1 1 3 3 4 4 3 4 4 3 2 2 2 2 2 2 3 3 3 4 4 4 4 4 4 4 4 4 3 4 4 3 4 4 4 4 3 3 4 3 4
2 1 0 1 2 4 4 3 2 2 1 2 3 3 4 4 3 2 2 2 3 3 3 3 3 4 3 4 4 4 4 4 4 4 4 4 4 4 4 4 4 4 4 4 3 3 3 3 4
2 1 2 3 3 3 4 2 1 2 2 1 2 3 4 4 3 3 3 3 3 3 3 3 3 3 3 4 4 4 4 4 3 3 4 4 3 3 4 4 3 4 4 3 3 3 3 4 4
1 2 2 2 4 3 3 4 1 4 3 2 3 4 4 4 4 3 3 3 3 3 3 3 4 4 4 4 4 4 4 4 3 3 3 3 3 3 3 3 3 3 3 3 4 4 4 4 4
Wind_Direction
297 276 257 252 242 232 241 250 255 282 46 40 28 19 21 23 36 108 129 71 74 85 88 81 76 77 80 79 78 77 82 86 92 93 92 97 96 95 93 90 88 84 80 78 83 86 85 81 79
288 276 257 239 239 235 238 234 263 31 60 50 36 20 35 68 70 97 91 71 80 90 89 81 77 76 77 79 78 75 76 83 89 96 98 98 100 104 102 97 93 88 82 80 81 85 87 85 82
271 263 247 230 230 240 264 17 86 70 67 65 49 24 37 66 82 93 85 80 80 85 84 81 75 74 75 79 78 76 74 75 77 84 96 99 94 100 107 105 99 92 86 82 81 86 90 88 86
260 232 244 241 242 246 270 322 78 73 75 70 59 64 76 56 69 89 85 77 80 84 86 86 79 73 74 76 80 80 77 75 74 73 78 86 89 88 94 98 98 95 92 88 86 91 97 95 91
248 237 224 234 245 257 272 315 82 70 119 119 134 104 81 72 80 87 84 77 76 77 83 94 85 77 73 72 78 84 82 77 75 76 75 72 74 79 82 91 101 104 100 99 102 103 110 110 105
241 240 231 233 239 240 254 325 93 327 259 135 113 156 99 107 91 90 83 75 75 79 78 90 87 81 74 69 67 73 85 84 81 76 73 67 63 68 83 91 95 110 115 113 114 114 126 128 123
255 246 245 252 253 249 261 52 81 282 284 9 40 105 128 114 89 91 84 71 73 80 83 84 83 80 78 69 64 60 74 89 87 82 75 72 66 59 76 99 91 97 121 134 140 138 143 145 142
288 278 253 253 258 261 344 48 48 16 357 4 6 51 121 121 104 93 84 70 71 72 75 75 73 71 69 71 68 56 53 74 92 84 77 79 78 67 65 92 99 91 97 147 165 172 176 173 168
280 249 245 253 266 286 76 74 41 30 15 0 15 31 94 119 115 106 93 76 76 72 70 70 66 60 60 68 64 58 51 56 111 110 78 67 72 88 95 104 110 104 107 124 211 212 199 183 189
220 231 239 287 328 352 27 36 35 299 237 241 100 82 99 113 123 126 123 110 90 74 64 64 60 51 44 53 60 53 44 29 48 93 81 67 46 52 92 135 146 120 127 279 264 239 219 197 204
214 235 261 313 348 3 353 331 308 262 254 257 186 125 114 120 129 139 134 123 115 99 73 63 68 54 40 34 51 42 33 28 25 29 26 33 28 28 45 87 141 230 292 352 324 280 245 237 227
233 248 279 294 334 355 325 313 287 265 280 333 52 128 142 152 164 174 165 137 112 100 85 58 65 71 49 27 23 38 36 29 42 31 19 20 5 357 357 32 35 39 3 318 300 274 276 271 259
235 237 247 281 307 299 294 270 275 269 276 319 118 156 181 186 187 185 160 126 107 110 109 87 53 63 55 42 3 28 26 23 30 21 4 1 352 332 347 354 16 345 335 296 281 268 256 244 246
262 266 260 249 249 241 257 260 248 252 233 205 199 204 202 202 194 179 167 147 134 114 112 109 88 65 54 33 3 25 18 13 15 10 349 348 3 349 336 331 340 331 302 285 279 281 258 233 240
276 257 252 234 229 200 251 263 231 224 215 214 217 215 205 202 184 182 172 156 151 150 137 128 123 84 53 8 338 14 351 9 338 330 327 337 350 345 329 278 252 295 299 282 264 260 267 250 243
234 236 236 205 197 177 197 258 218 193 203 216 223 219 207 194 177 168 145 137 140 148 140 135 119 78 26 333 290 284 299 314 294 326 323 317 320 324 324 270 251 299 297 289 243 221 249 257 257
218 235 234 213 198 185 208 252 218 198 218 234 236 217 193 179 163 128 116 124 134 152 150 146 139 153 227 293 282 271 275 272 292 316 335 320 314 314 308 290 283 295 283 273 262 239 225 258 264
239 253 258 236 220 241 248 260 246 222 226 235 233 204 181 174 166 133 128 128 111 101 135 140 145 156 208 247 273 288 261 244 270 272 271 296 301 299 299 282 290 281 250 262 267 261 242 256 258
287 280 280 287 298 271 259 264 262 250 236 235 226 212 195 182 150 136 132 130 122 99 104 153 170 182 184 236 263 260 271 273 267 246 256 254 260 268 269 268 278 264 240 246 257 271 258 254 260
274 274 275 284 267 278 272 268 263 241 231 229 229 220 206 223 183 146 140 138 140 150 182 189 197 200 199 216 247 243 254 260 270 265 260 259 251 252 255 238 246 253 248 252 254 253 248 257 216
266 266 283 293 303 264 274 269 234 204 204 211 212 199 201 204 223 171 140 126 142 182 217 253 233 217 209 214 248 273 276 273 270 271 255 254 257 252 252 244 242 243 239 243 244 233 232 242 245
272 313 304 299 294 270 249 281 251 190 197 182 179 174 195 210 220 220 146 146 183 218 218 247 238 229 216 209 231 241 252 255 257 261 254 251 252 247 247 242 242 242 240 243 251 245 239 225 236
292 326 296 278 272 284 248 248 255 198 208 200 183 146 23 16 248 212 139 127 117 78 67 254 251 271 247 238 231 244 256 262 265 266 264 264 254 244 243 242 238 238 243 241 243 254 243 234 234
305 306 275 244 255 262 230 218 255 209 196 139 77 50 34 22 34 47 75 83 87 84 32 297 266 271 265 251 248 245 251 257 264 267 268 268 262 250 246 244 240 238 238 238 237 245 245 237 238
266 351 337 253 222 242 211 213 238 118 86 95 73 40 43 33 33 30 33 33 24 18 310 302 307 282 276 264 259 253 250 248 248 257 259 265 265 263 256 251 246 245 242 238 233 235 246 239 234
240 233 209 253 266 296 298 232 192 94 77 65 78 69 57 32 21 24 24 5 344 323 323 317 308 298 290 273 268 263 254 247 248 254 258 257 258 259 255 248 251 250 247 252 238 233 242 236 231
232 230 312 278 282 272 238 206 136 112 90 70 61 49 40 26 15 15 13 354 334 321 312 308 303 299 297 289 274 269 263 253 248 255 257 257 260 265 255 247 250 252 245 239 241 241 245 240 234
303 310 96 212 269 275 258 226 212 174 127 71 54 36 20 13 4 9 355 342 329 317 310 305 295 291 293 299 290 283 275 265 255 257 261 260 261 263 260 256 250 253 252 242 237 244 245 247 246
198 216 243 257 261 264 282 268 25 112 101 93 26 10 358 344 340 340 335 331 319 312 315 309 301 300 299 294 290 286 281 272 264 259 260 263 262 260 266 262 257 255 252 245 242 244 246 246 249
278 238 198 218 263 243 264 263 19 84 68 43 4 354 345 341 334 337 333 329 324 324 321 318 317 312 307 300 291 283 282 282 274 268 266 267 270 265 267 271 267 265 262 249 241 244 245 243 247
Height
1489 1490 1492 1495 1496 1497 1493 1482 1473 1473 1475 1479 1481 1482 1484 1489 1493 1504 1504 1502 1502 1502 1503 1504 1505 1506 1507 1508 1509 1510 1511 1512 1513 1513 1514 1515 1515 1516 1517 1518 1518 1518 1519 1519 1520 1520 1520 1521 1521
1488 1491 1494 1494 1496 1498 1490 1478 1476 1476 1479 1481 1483 1485 1487 1492 1496 1499 1501 1502 1502 1502 1502 1503 1505 1506 1507 1508 1509 1510 1511 1512 1512 1513 1514 1515 1515 1516 1517 1517 1518 1518 1519 1519 1520 1520 1520 1521 1521
1488 1491 1494 1492 1492 1492 1484 1476 1476 1478 1481 1483 1486 1487 1490 1495 1497 1499 1500 1501 1502 1502 1502 1503 1505 1506 1507 1508 1508 1509 1510 1511 1512 1513 1514 1514 1515 1516 1516 1517 1518 1518 1518 1519 1519 1520 1520 1521 1521
1489 1492 1492 1492 1490 1483 1479 1477 1477 1479 1482 1485 1487 1490 1493 1497 1497 1499 1500 1501 1502 1502 1502 1503 1504 1505 1506 1507 1508 1509 1510 1510 1511 1512 1513 1514 1515 1515 1516 1516 1517 1517 1518 1518 1519 1519 1520 1520 1521
1490 1491 1491 1491 1486 1480 1477 1476 1478 1480 1483 1485 1488 1491 1494 1497 1497 1498 1500 1501 1502 1501 1502 1503 1504 1505 1506 1506 1507 1508 1509 1510 1510 1511 1512 1513 1514 1514 1515 1516 1516 1517 1517 1518 1518 1518 1519 1519 1520
1490 1488 1490 1490 1483 1477 1476 1477 1479 1481 1484 1486 1488 1491 1495 1496 1496 1497 1499 1501 1501 1501 1502 1503 1504 1505 1505 1506 1506 1507 1508 1509 1510 1511 1511 1512 1513 1513 1514 1514 1515 1515 1516 1516 1517 1517 1518 1518 1519
1489 1487 1487 1483 1480 1477 1477 1477 1480 1482 1484 1487 1488 1491 1494 1495 1496 1497 1499 1500 1501 1501 1501 1502 1503 1504 1504 1505 1506 1506 1507 1508 1509 1509 1510 1511 1511 1512 1512 1513 1514 1514 1515 1515 1516 1516 1517 1517 1518
1487 1487 1484 1482 1480 1479 1478 1479 1481 1484 1486 1488 1489 1490 1493 1495 1495 1497 1498 1499 1500 1500 1501 1501 1502 1502 1503 1504 1504 1505 1506 1506 1507 1508 1509 1509 1510 1510 1511 1511 1512 1513 1513 1514 1514 1515 1515 1516 1517
1487 1490 1487 1481 1480 1480 1479 1481 1484 1485 1487 1489 1489 1490 1492 1493 1494 1496 1497 1498 1499 1499 1500 1500 1501 1501 1502 1502 1503 1504 1504 1505 1506 1506 1507 1508 1508 1509 1509 1510 1511 1511 1512 1512 1513 1513 1514 1514 1515
1487 1488 1484 1480 1480 1480 1481 1482 1485 1486 1487 1489 1490 1490 1491 1492 1493 1494 1495 1497 1497 1498 1499 1499 1500 1500 1501 1501 1501 1502 1502 1503 1503 1504 1505 1505 1506 1507 1507 1508 1509 1510 1510 1511 1511 1512 1512 1513 1513
1484 1484 1481 1481 1481 1481 1482 1484 1485 1486 1487 1488 1488 1489 1490 1491 1492 1493 1494 1495 1496 1497 1497 1498 1499 1499 1499 1499 1499 1500 1500 1501 1502 1502 1503 1503 1504 1505 1505 1506 1507 1507 1508 1508 1509 1510 1510 1511 1511
1482 1481 1482 1482 1483 1483 1484 1485 1486 1486 1487 1486 1487 1488 1489 1490 1491 1492 1493 1494 1494 1495 1495 1496 1497 1497 1497 1498 1498 1498 1498 1498 1499 1500 1501 1501 1502 1502 1503 1503 1504 1505 1505 1506 1507 1507 1508 1509 1509
1481 1481 1482 1482 1483 1484 1484 1485 1486 1485 1485 1485 1486 1487 1488 1489 1490 1491 1492 1492 1493 1493 1493 1494 1495 1495 1496 1496 1496 1495 1496 1496 1497 1497 1498 1499 1499 1500 1501 1501 1502 1502 1503 1504 1504 1505 1505 1506 1507
1479 1480 1481 1481 1482 1483 1484 1483 1484 1482 1483 1484 1485 1486 1486 1487 1488 1489 1490 1490 1490 1491 1491 1491 1492 1493 1493 1493 1493 1493 1494 1494 1495 1495 1496 1496 1497 1498 1498 1499 1499 1500 1500 1501 1502 1502 1503 1503 1504
1480 1481 1480 1479 1480 1481 1483 1482 1480 1480 1481 1482 1483 1484 1484 1485 1486 1487 1487 1488 1488 1488 1489 1489 1490 1490 1491 1491 1491 1491 1492 1492 1492 1493 1493 1494 1494 1494 1495 1496 1496 1497 1498 1498 1499 1499 1500 1501 1501
1480 1481 1480 1476 1477 1478 1484 1482 1478 1478 1478 1479 1480 1481 1482 1482 1483 1484 1485 1485 1486 1486 1487 1487 1487 1488 1488 1488 1489 1489 1489 1489 1490 1490 1490 1491 1492 1492 1493 1493 1493 1494 1495 1495 1496 1496 1497 1497 1498
1479 1480 1476 1475 1473 1475 1479 1478 1476 1476 1477 1477 1478 1478 1479 1480 1481 1482 1482 1483 1484 1484 1484 1484 1485 1485 1485 1486 1486 1486 1486 1487 1487 1487 1488 1488 1489 1489 1490 1490 1490 1491 1491 1492 1493 1493 1494 1494 1494
1479 1477 1473 1474 1473 1474 1476 1475 1474 1474 1474 1475 1475 1476 1477 1478 1479 1479 1480 1480 1481 1481 1482 1482 1482 1483 1483 1483 1483 1483 1484 1484 1484 1484 1484 1485 1485 1486 1486 1487 1488 1488 1488 1489 1489 1490 1490 1491 1491
1476 1476 1476 1474 1474 1476 1475 1473 1471 1471 1471 1472 1473 1474 1475 1476 1477 1477 1477 1478 1478 1478 1479 1479 1479 1480 1480 1480 1480 1480 1480 1480 1481 1481 1481 1482 1482 1483 1483 1484 1484 1485 1485 1485 1486 1486 1487 1487 1488
1477 1478 1477 1475 1474 1475 1473 1470 1468 1468 1468 1469 1470 1471 1473 1474 1475 1475 1475 1475 1475 1476 1476 1476 1476 1477 1477 1477 1477 1477 1477 1477 1478 1478 1478 1479 1479 1479 1480 1480 1481 1481 1481 1482 1482 1483 1483 1484 1485
1477 1478 1477 1478 1476 1473 1475 1470 1465 1464 1465 1467 1468 1469 1470 1471 1472 1473 1473 1473 1473 1473 1473 1473 1473 1474 1474 1474 1474 1474 1474 1474 1474 1474 1474 1475 1475 1476 1476 1476 1477 1477 1478 1478 1478 1479 1479 1480 1481
1480 1478 1478 1478 1482 1480 1475 1480 1465 1463 1463 1464 1466 1467 1468 1468 1469 1470 1470 1470 1470 1470 1471 1471 1470 1471 1471 1471 1471 1470 1470 1470 1470 1470 1471 1471 1471 1471 1472 1472 1473 1473 1473 1474 1474 1475 1476 1476 1476
1480 1479 1479 1480 1482 1483 1477 1481 1469 1462 1463 1464 1464 1465 1466 1467 1467 1467 1468 1468 1468 1468 1468 1468 1468 1468 1468 1468 1467 1467 1467 1467 1467 1467 1467 1467 1467 1467 1468 1468 1468 1468 1469 1469 1470 1471 1471 1472 1472
1481 1481 1480 1479 1483 1488 1475 1476 1468 1462 1460 1462 1463 1464 1465 1465 1465 1466 1466 1466 1466 1466 1465 1465 1465 1464 1465 1464 1464 1464 1464 1463 1463 1463 1463 1463 1463 1463 1463 1463 1463 1464 1464 1464 1465 1466 1466 1467 1467
1482 1487 1488 1486 1487 1480 1466 1469 1465 1459 1458 1460 1462 1463 1464 1464 1464 1464 1464 1464 1463 1463 1463 1462 1462 1461 1461 1461 1461 1460 1460 1460 1459 1459 1459 1459 1459 1458 1459 1459 1459 1459 1459 1460 1460 1461 1461 1462 1462
1483 1485 1490 1490 1481 1474 1470 1469 1463 1459 1459 1460 1461 1462 1463 1463 1464 1463 1463 1462 1462 1461 1460 1459 1459 1458 1458 1458 1457 1457 1457 1456 1455 1455 1455 1455 1455 1454 1454 1454 1455 1455 1455 1455 1455 1455 1456 1456 1457
1482 1484 1482 1488 1487 1485 1470 1461 1461 1459 1460 1461 1461 1462 1462 1463 1463 1462 1461 1461 1460 1459 1458 1457 1456 1455 1454 1454 1454 1453 1453 1452 1452 1451 1451 1450 1450 1450 1450 1450 1450 1450 1450 1450 1451 1450 1451 1452 1452
1483 1482 1487 1489 1488 1480 1465 1461 1464 1462 1461 1461 1462 1462 1462 1462 1461 1461 1460 1459 1458 1457 1455 1454 1453 1452 1451 1450 1450 1449 1449 1448 1448 1447 1446 1446 1446 1446 1445 1445 1445 1445 1445 1445 1446 1446 1447 1447 1447
1485 1485 1485 1485 1483 1483 1475 1470 1459 1460 1460 1461 1462 1462 1462 1461 1460 1459 1458 1456 1455 1454 1452 1451 1450 1448 1447 1446 1445 1445 1444 1444 1443 1443 1442 1442 1442 1441 1441 1440 1440 1440 1440 1440 1441 1441 1442 1442 1442
1484 1484 1486 1490 1486 1482 1482 1475 1460 1460 1460 1461 1461 1462 1461 1460 1459 1457 1455 1453 1452 1450 1449 1448 1446 1445 1443 1442 1441 1440 1440 1440 1439 1439 1438 1438 1438 1437 1437 1436 1436 1436 1436 1436 1437 1437 1437 1438 1438